Location: Buckland
(65.9785°N, 161.1281°W)
Time: 07:51:46
(UTC+00:00)

Transit 4A - Pass Details

Date: 05 August 2021
Orbit: 870 x 974 km, 66.8° (Epoch: 27 September)

Event Time Altitude Azimuth Distance (km) Brightness Sun altitude
Exits shadow 09:33:54 - 174° (S) 2,839 9.8 -5.9°
Reaches altitude 10° 09:34:55 10° 168° (SSE) 2,527 9.5 -6.0°
Maximum altitude 09:39:25 24° 117° (ESE) 1,746 9.0 -6.1°
Drops below altitude 10° 09:43:55 10° 67° (ENE) 2,530 10.3 -6.2°
Sets 09:46:51 0° 54° (NE) 3,477 11.2 -6.3°
